Other Public Products
Issued by NWS Grand Forks, ND

Home | Current Version | Previous Version | Text Only | Print | Product List | Glossary On
Versions: 1 2 3 4 5 6 7 8 9 10 11 12 13 14 15 16 17 18 19 20 21 22 23 24 25 26 27 28 29 30 31 32 33 34 35 36 37 38 39 40 41 42 43 44 45 46 47 48 49 50
000
FPUS83 KFGF 220631
OPUFGF
PRAIRIE TO PINES WEATHER ROUNDUP
NATIONAL WEATHER SERVICE EASTERN NORTH DAKOTA/GRAND FORKS ND
100 AM CDT MON SEP 22 2014

 **SATELLITE DATA USED TO AUGMENT SKY COVER AT AUTOMATED STATIONS**
 *****  WEATHER ACROSS EASTERN NORTH DAKOTA  *****

CITY           SKY/WX    TMP DP  RH WIND       PRES   REMARKS
GRAND FORKS    CLEAR     50  48  93 S9        30.16F
6HR MIN TEMP:  50; 6HR MAX TEMP:  64;

GRAND FORKS AF CLEAR     49  49  99 SW6       30.16F
GRAND CITY NWS   N/A     50 N/A N/A SW5         N/A
BUXTON           N/A     50  50  99 S6          N/A
DEVILS LAKE    CLEAR     54  45  71 SW3       30.15S
6HR MIN TEMP:  48; 6HR MAX TEMP:  66;

FARGO          CLEAR     52  48  86 S7        30.20F
6HR MIN TEMP:  52; 6HR MAX TEMP:  62;

WAHPETON ARPT  CLEAR     46  43  87 SE6       30.22F
$$

 *****  WEATHER ACROSS CENTRAL AND WESTERN NORTH DAKOTA  *****

CITY           SKY/WX    TMP DP  RH WIND       PRES   REMARKS
JAMESTOWN      CLEAR     46  43  89 S3        30.19F
6HR MIN TEMP:  44; 6HR MAX TEMP:  65;

BISMARCK       CLEAR     46  42  86 CALM      30.21S
6HR MIN TEMP:  45; 6HR MAX TEMP:  71;

MINOT          CLEAR     53  40  61 SW6       30.14F
6HR MIN TEMP:  53; 6HR MAX TEMP:  69;

MINOT AFB      CLEAR     52  41  67 SW8       30.13F
6HR MIN TEMP:  47; 6HR MAX TEMP:  70;

GARRISON         N/A     49  44  83 CALM      30.17F
6HR MIN TEMP:  48; 6HR MAX TEMP:  66;

WILLISTON      CLEAR     48  39  71 CALM      30.13F
6HR MIN TEMP:  43; 6HR MAX TEMP:  71;

DICKINSON      CLEAR     45  36  70 S9        30.17F
6HR MIN TEMP:  44; 6HR MAX TEMP:  70;

HETTINGER      CLEAR     50  38  63 SE6       30.20F
6HR MIN TEMP:  49; 6HR MAX TEMP:  69;

$$

 *****  OTHER OBSERVATIONS NORTHEAST NORTH DAKOTA  *****

CITY           SKY/WX    TMP DP  RH WIND       PRES   REMARKS
WALHALLA       FAIR      52  46  82 SW5       30.13S
LANGDON        FAIR      43  41  93 SW9       30.14F
CAVALIER       FAIR      48  46  93 CALM      30.13S
GRAFTON        FAIR      46  46 100 S8        30.15S
CANDO          FAIR      45  41  87 SW6       30.16S
FORT TOTTEN    NOT AVBL
ROLLA          FAIR      46  43  87 SW9       30.16F
RUGBY          FAIR      48  46  93 S8        30.15S
 ***** THE ABOVE OBSERVATIONS ARE NON NWS ARE NOT QUALITY
        CONTROLLED AND MAY MIS-REPORT RAIN FOR SNOW...
$$

 *****  OTHER OBSERVATIONS SOUTHEAST NORTH DAKOTA *****

CITY           SKY/WX    TMP DP  RH WIND       PRES   REMARKS
COOPERSTOWN    NOT AVBL
VALLEY CITY    FAIR      46  46 100 S5        30.20S
OAKES            N/A     46  46 100 S6        30.21F
GWINNER        CLEAR     48  46  93 CALM      30.22S
SHEYENNE NWR     N/A     45  44  97 SE2       29.95S
BUFFALO          N/A     50  47  90 SW6         N/A
WYNDMERE         N/A     46  45  93 SW1         N/A
 ***** THE ABOVE OBSERVATIONS ARE NON NWS ARE NOT QUALITY
       CONTROLLED AND MAY MIS-REPORT RAIN FOR SNOW...
$$

  *****  WEATHER ACROSS NORTHERN MINNESOTA  *****

CITY           SKY/WX    TMP DP  RH WIND       PRES   REMARKS
FLAG ISLAND    CLEAR     52  48  87 SW14      30.10F
WARROAD        CLEAR     52  46  82 SW7       30.15S
ROSEAU         CLEAR     50  45  81 S8        30.14F
HALLOCK        CLEAR     48  46  93 S8        30.14S
THF RVR FALLS  CLEAR     48  45  87 S6        30.18S
6HR MIN TEMP:  46; 6HR MAX TEMP:  61;

HALSTAD          N/A     46  45  95 S6          N/A
FOSSTON        CLEAR     43  41  93 CALM      30.20S
BAUDETTE       CLEAR     47  45  93 SW5       30.14F
6HR MIN TEMP:  46; 6HR MAX TEMP:  57;

WASKISH        CLEAR     45  43  93 CALM      30.16F
CROOKSTON      CLEAR     50  48  93 S6        30.19S
$$
  *****  WEATHER ACROSS CENTRAL AND WEST MINNESOTA  *****

CITY           SKY/WX    TMP DP  RH WIND       PRES   REMARKS
BEMIDJI        CLEAR     46  45  95 SW3       30.19S
PARK RAPIDS    CLEAR     41  41 100 W5        30.21S FOG
6HR MIN TEMP:  42; 6HR MAX TEMP:  53;

WADENA         CLEAR     41  41 100 CALM      30.22S
DETROIT LAKES  FOG       48  46  93 CALM      30.23S VSB 3/4
MOORHEAD       CLEAR     50  50 100 S6        30.21F
FERGUS FALLS   CLEAR     48  46  93 S3        30.24S
ELBOW LAKE     FAIR      46  45  98 S5        30.23F
6HR MIN TEMP:  46; 6HR MAX TEMP:  58;

MORRIS MN        N/A     46  45  93 S5        30.23S FOG
STAPLES        CLEAR     43  43 100 CALM      30.22S
WHEATON        FAIR      50  46  87 S7        30.24F
$$
  *****  WEATHER ELSEWHERE ACROSS MINNESOTA  *****

CITY           SKY/WX    TMP DP  RH WIND       PRES   REMARKS
DULUTH         MOCLDY    51  46  83 NW8       30.18S
6HR MIN TEMP:  46; 6HR MAX TEMP:  58;

INTRNTL FALLS  CLEAR     47  46  97 SW5       30.14F
6HR MIN TEMP:  40; 6HR MAX TEMP:  54;

ELY            CLOUDY    48  45  87 W3        30.15F
CLOQUET        CLEAR     46  45  93 W6        30.18F
BRAINERD       CLEAR     43  43 100 S3        30.22S FOG
6HR MIN TEMP:  44; 6HR MAX TEMP:  58;

HIBBING        PTCLDY    41  39  93 CALM      30.18S FOG
6HR MIN TEMP:  40; 6HR MAX TEMP:  57;

ALEXANDRIA     PTCLDY    46  44  93 CALM      30.24S FOG
6HR MIN TEMP:  46; 6HR MAX TEMP:  57;

SAINT CLOUD    CLEAR     49  45  86 W3        30.23S
6HR MIN TEMP:  49; 6HR MAX TEMP:  64;

MINNEAPOLIS    CLEAR     50  48  93 NW6       30.23S
6HR MIN TEMP:  50; 6HR MAX TEMP:  64;

$$

  *****  WEATHER ACROSS SOUTH DAKOTA  *****

CITY           SKY/WX    TMP DP  RH WIND       PRES   REMARKS
SIOUX FALLS    CLEAR     47  45  93 CALM      30.26F
6HR MIN TEMP:  47; 6HR MAX TEMP:  64;

BROOKINGS      NOT AVBL
WATERTOWN      CLEAR     47  44  90 S5        30.25S
6HR MIN TEMP:  45; 6HR MAX TEMP:  62;

HURON          CLEAR     44  41  89 CALM      30.25R
6HR MIN TEMP:  44; 6HR MAX TEMP:  67;

SISSETON         N/A     46  45  96 S5        30.22S
ABERDEEN       CLEAR     42  40  92 SW6       30.23S
6HR MIN TEMP:  41; 6HR MAX TEMP:  68;

MITCHELL       CLEAR     53  46  77 SW6       30.27R
PIERRE         CLEAR     44  39  82 E5        30.22F
6HR MIN TEMP:  44; 6HR MAX TEMP:  69;

MOBRIDGE       CLEAR     50  47  89 SE6       30.20F
RAPID CITY     PTCLDY    53  36  52 S5        30.22F
6HR MIN TEMP:  48; 6HR MAX TEMP:  69;

$$

  *****  SOME WEATHER IN NEARBY STATES *****

CITY           SKY/WX    TMP DP  RH WIND       PRES   REMARKS
GLASGOW MT     CLEAR     53  36  52 E13       30.06F
6HR MIN TEMP:  53; 6HR MAX TEMP:  73;

GREAT FALLS MT CLEAR     64  45  49 S12       30.00S
6HR MIN TEMP:  57; 6HR MAX TEMP:  75;

CHEYENNE WY    MOCLDY    55  39  54 S14       30.32F
6HR MIN TEMP:  55; 6HR MAX TEMP:  66;

SCOTTSBLUFF NE PTCLDY    59  44  57 E10       30.26F
6HR MIN TEMP:  57; 6HR MAX TEMP:  71;

OMAHA NE       CLEAR     54  50  86 CALM      30.28R
6HR MIN TEMP:  52; 6HR MAX TEMP:  67;

DES MOINES IA  CLEAR     56  48  74 N6        30.25R
6HR MIN TEMP:  56; 6HR MAX TEMP:  66;

DAVENPORT IA   CLEAR     48  44  86 NW7       30.20R
6HR MIN TEMP:  47; 6HR MAX TEMP:  61;

CHICAGO IL     PTCLDY    51  43  74 N8        30.14S
6HR MIN TEMP:  51; 6HR MAX TEMP:  60;

EAU CLAIRE WI  CLEAR     46  44  93 S3        30.19F
6HR MIN TEMP:  45; 6HR MAX TEMP:  59;

LA CROSSE WI   CLEAR     49  46  90 SE5       30.21S
6HR MIN TEMP:  49; 6HR MAX TEMP:  61;

$$

  *****  SOME NATIONAL WEATHER *****

CITY           SKY/WX    TMP DP  RH WIND       PRES   REMARKS



USA.gov is the U.S. government's official web portal to all federal, state and local government web resources and services.